Home   Weather   Salvador   Past weeks

Flag for Brazil Past Weather in Salvador, Bahia, Brazil — Yesterday and Last 2 Weeks

Now
75 °F

Partly sunny.


Feels Like: 77 °F
Forecast: 72 / 76 °F
Wind: 9 mph from Southeast

Location: Salvador Aeroporto

Current Time: Jul 20, 2017 at 3:50:48 pm

Latest Report: Jul 20, 2017 at 3:00 pm


Visibility: N/A

Pressure: 30.09 "Hg

Humidity: 74%

Dew Point: 66 °F

Location of SalvadorLocation

Past Weather in Salvador — Graph

°F

Salvador Temperature Yesterday

Maximum temperature yesterday: 77 °F (at 1:00 pm)
Minimum temperature yesterday: 70 °F (at 10:25 am)
Average temperature yesterday: 73 °F

High & Low Weather Summary for the Past Weeks

 TemperatureHumidityPressure
High81 °F (Jul 9, 12:00 pm)100% (Jul 13, 12:00 am)30.18 "Hg (Jul 13, 12:00 am)
Low68 °F (Jul 5, 10:12 pm)27% (Jul 12, 4:00 pm)29.80 "Hg (Jul 11, 3:00 am)
Average73 °F73%30.13 "Hg
* Reported Jul 5 2:00 pm — Jul 20 2:00 pm, Salvador. Weather by CustomWeather, © 2017

Note: Actual official high and low records may vary slightly from our data, if they occured in-between our weather recording intervals... More about our weather records

Advertising

Salvador Weather History for the Previous 24 Hours

Scroll right to see more
 ConditionsComfort  
Time TempWeatherWind HumidityBarometerVisibility
2:00 pm
Thu, Jul 20
72 °FScattered showers. Broken clouds.7 mph88%30.12 "Hg5 mi
1:00 pm72 °FSprinkles. Partly sunny.14 mph88%30.12 "Hg3 mi
12:00 pm77 °FBroken clouds.12 mph65%30.15 "HgN/A
11:00 am77 °FBroken clouds.10 mph65%30.18 "HgN/A
10:00 am75 °FScattered showers. Partly sunny.10 mph74%30.18 "Hg5 mi
9:00 am77 °FBroken clouds.9 mph69%30.18 "HgN/A
8:00 am73 °FScattered showers. Broken clouds.8 mph78%30.15 "Hg5 mi
7:00 am72 °FBroken clouds.8 mph78%30.15 "HgN/A
6:00 am72 °FScattered showers. Broken clouds.9 mph83%N/AN/A
5:00 am72 °FPartly cloudy.10 mph78%30.12 "HgN/A
4:00 am72 °FPassing clouds.10 mph78%30.09 "HgN/A
3:00 am70 °FMostly cloudy.8 mph88%30.09 "HgN/A
2:00 am72 °FPartly cloudy.8 mph83%30.12 "HgN/A
1:00 am72 °FPassing clouds.10 mph83%30.12 "HgN/A
12:00 am73 °FPassing clouds.10 mph78%30.15 "HgN/A
11:00 pm
Wed, Jul 19
72 °FPartly cloudy.5 mph78%30.15 "HgN/A
10:00 pm72 °FPartly cloudy.8 mph83%30.15 "HgN/A
9:00 pm72 °FPassing clouds.9 mph83%30.15 "HgN/A
8:00 pm73 °FPassing clouds.7 mph78%30.12 "HgN/A
7:00 pm73 °FPassing clouds.9 mph78%30.09 "HgN/A
6:00 pm72 °FPassing clouds.7 mph78%30.09 "HgN/A
5:00 pm73 °FScattered clouds.8 mph74%30.07 "HgN/A
4:00 pm73 °FScattered clouds.9 mph78%30.07 "HgN/A
3:00 pm73 °FScattered showers. Scattered clouds.5 mph83%30.07 "HgN/A
Weather by CustomWeather, © 2017

See weather overviewHow to use our weather pages